loading
DOY 175 | 2024-06-23T18:45:11Z

THOR ABLESTAR DEB, 252

Orbit data source: Space-Track

THOR ABLESTAR DEB, 252 is space debris in LEO originally from a launch on Thu, 29 Jun 1961 UTC launched from the Air Force Eastern Test Range (AFETR). Debris objects in space refer to the collection of defunct objects orbiting the Earth. Examples of debris include non-operational satellites, rocket bodies, and fragments generated from explosions, collisions, or faulty payload assembly.

Loading next visibility...
Loading greatness...
THOR ABLESTAR DEB details
NORAD ID252
COSPAR ID
1961-015CD
Orbit
LEO
Last TLE update13 hours ago
Origin
Flag of USUSAF SSD (US)
ManufacturerUnknown
BusUnknown
MotorUnknown
MassWet unknown, Dry mass unknown
Launch date (UTC)
1961-06-29 (63 years ago)
Launch vehicleUnknown
Launch site
Air Force Eastern Test Range (AFETR)
Object type
Payload
Rocket body
Debris
Radar Cross SectionSmall (<0.1 m²)
Predictive object data (real-time)
Latitude35.74563°
Longitude119.58094°
Altitude946.017 km
Speed7.399 km/s
Apparent Right ascension10h 59m 28s
Apparent Declination4° 26' 30"
Sunlit
Object is in daylight
Predictive observer data (real-time)
Local Sidereal Time05:54:25
Azimuth95.459° ESE
Elevation13.375°
Doppler factor1
Orbital elements
Apogee1,011.742 km
Perigee933.66 km
Semi-major axis7,350.838 km
Eccentricity0.0053111
Inclination67.0784°
RAAN95.4569°
Arg. of periapsis5.2794°
True anomaly146.6274°
Mean anomaly146.2915°
Mean motion3.4438 °/min
BSTAR0.00033268
Period104.54 mins
Definitive object data (Epoch: 2024-06-23T05:21:14.17Z)
Latitude25.74968°
Longitude-88.43424°
Altitude1,009.182 km
Speed7.333 km/s
True Right ascension17h 34m 59s
True Declination25° 37' 12"
Sunlit
Object was in full shadow at TLE epoch
TLE from 13 hours ago
0 THOR ABLESTAR DEB
1   252U 61015CD  24175.22308068  .00000260  00000-0  33268-3 0  9993
2   252  67.0784  95.4569 0053111   5.2794 146.2915 13.77061293152082
Epoch: 2024-06-23T05:21Z
No data available

THOR ABLESTAR DEB Visibility forecast

Observer location: 39.9160978°, -105.1181434, 0m alt.

THOR ABLESTAR DEB is not visible in the next 10 days
Span
Click to sort rows by Start time (UTC) header in descending order
Start Az.
Max El. time (UTC)
Max El. Az.
Max El.
End time (UTC)
End Az.